Flag for Turkey Weather past 2 weeks in Ankara, Turkey

Now
79 °F

Sunny.


Feels Like: 78 °F
Forecast: 52 / 92 °F
Wind: 9 mph from East

Location: Ankara / Esenboga

Current Time: Sep 1, 2015 at 8:17:31 PM

Latest Report: Sep 1, 2015 at 7:20 PM


Visibility: 10 mi

Pressure: 30.09 "Hg (27.24 "Hg at 871m altitude)

Humidity: 18%

Dew point: 32 °F

Location of AnkaraLocation

Historic Weather in Ankara — Graph

°F

Ankara temperature yesterday

Maximum temperature yesterday: 84 °F (at 3:20 PM)
Minimum temperature yesterday: 54 °F (at 5:50 AM)
Average temperature yesterday: 70 °F

Past Weeks' High & Low Weather Summary

 TemperatureHumidityPressure
High90 °F (Aug 18, 3:50 PM)88% (Aug 21, 7:20 AM)30.21 "Hg (Aug 21, 7:20 AM)
Low46 °F (Aug 26, 6:20 AM)14% (Sep 1, 3:50 PM)29.83 "Hg (Aug 23, 5:50 PM)
Average71 °F50%30.04 "Hg
* Reported Aug 17 6:20 PM — Sep 1 6:50 PM, Ankara, Weather by CustomWeather, © 2015

Note: Actual official high and low records may vary slightly from our data, if they occured in-between our weather recording intervals... More about our weather records

Advertising

Ankara weather history for previous 24 hours

 ConditionsComfort  
Time TempWeatherWind HumidityBarometerVisibility
6:50 PM
Tue, Sep 1
81 °FPassing clouds.12 mph17%30.09 "HgN/A
6:20 PM82 °FSunny.13 mph17%30.09 "Hg10 mi
5:50 PM82 °FSunny.15 mph16%30.09 "Hg10 mi
5:20 PM82 °FPassing clouds.17 mph16%30.09 "HgN/A
4:50 PM82 °FPassing clouds.16 mph16%30.09 "HgN/A
4:20 PM84 °FPassing clouds.13 mph14%30.09 "HgN/A
3:50 PM84 °FPassing clouds.14 mph14%30.09 "HgN/A
3:20 PM82 °FPassing clouds.13 mph15%30.12 "HgN/A
2:50 PM82 °FPassing clouds.15 mph16%30.12 "HgN/A
2:20 PM82 °FPassing clouds.14 mph16%30.12 "HgN/A
1:50 PM81 °FPassing clouds.14 mph17%30.12 "HgN/A
1:20 PM81 °FPassing clouds.13 mph16%30.12 "HgN/A
12:50 PM81 °FPassing clouds.14 mph18%30.15 "HgN/A
12:20 PM79 °FPassing clouds.13 mph20%30.15 "HgN/A
11:50 AM79 °FPassing clouds.13 mph21%30.15 "HgN/A
11:20 AM77 °FPassing clouds.13 mph19%30.15 "HgN/A
10:50 AM77 °FPassing clouds.7 mph19%30.15 "HgN/A
10:20 AM73 °FPassing clouds.8 mph22%30.15 "HgN/A
9:50 AM70 °FSunny.3 mph31%30.15 "Hg10 mi
9:20 AM66 °FSunny.2 mph40%30.18 "Hg10 mi
8:50 AM63 °FSunny.2 mph45%30.15 "Hg10 mi
8:20 AM61 °FPassing clouds.3 mph45%30.18 "HgN/A
7:50 AM57 °FSunny.2 mph51%30.18 "Hg10 mi
7:20 AM55 °FSunny.1 mph55%30.18 "Hg10 mi
6:20 AM52 °FClear.2 mph62%30.15 "Hg10 mi
5:50 AM55 °FClear.7 mph55%30.15 "Hg10 mi
5:20 AM52 °FClear.8 mph62%30.15 "Hg10 mi
4:50 AM54 °FClear.5 mph58%30.15 "Hg10 mi
4:20 AM55 °FClear.7 mph55%30.15 "Hg10 mi
3:50 AM55 °FClear.9 mph55%30.15 "Hg10 mi
3:20 AM57 °FClear.8 mph51%30.15 "Hg10 mi
2:50 AM59 °FClear.5 mph48%30.15 "Hg10 mi
2:20 AM57 °FClear.7 mph51%30.15 "Hg10 mi
1:50 AM61 °FClear.6 mph45%30.18 "Hg10 mi
12:50 AM63 °FClear.7 mph45%30.18 "Hg10 mi
12:20 AM64 °FPassing clouds.3 mph46%30.15 "HgN/A
11:50 PM
Mon, Aug 31
64 °FPassing clouds.5 mph49%30.15 "HgN/A
11:20 PM64 °FClear.6 mph46%30.15 "Hg10 mi
10:50 PM66 °FClear.9 mph43%30.15 "Hg10 mi
10:20 PM66 °FClear.9 mph43%30.15 "Hg10 mi
9:50 PM68 °FClear.8 mph43%30.15 "Hg10 mi
9:20 PM70 °FPassing clouds.5 mph40%30.12 "HgN/A
8:50 PM72 °FClear.10 mph38%30.12 "Hg10 mi
8:20 PM75 °FSunny.10 mph34%30.09 "Hg10 mi
Weather by CustomWeather, © 2015

See weather overviewHow to use our weather pages